This is the latest recevied weather packets stored in our database for station/object I2HLY-3. If no packets are shown the sender has not sent any weather packets the latest 1 day(s).
| Time | Temp. | Humidity | Pressure | Rain* | Wind** | Luminosity | Snow |
|---|---|---|---|---|---|---|---|
| 1777992442 | 13.89° C | 93% | 1011.2 hPa | 0 mm | 1.79 m/s, 90° | - | - |
| 1777991548 | 13.89° C | 93% | 1011.3 hPa | 0 mm | 1.34 m/s, 75° | - | - |
| 1777990650 | 13.89° C | 93% | 1011.3 hPa | 0 mm | 2.24 m/s, 71° | - | - |
| 1777989751 | 13.89° C | 93% | 1011.3 hPa | 0 mm | 1.34 m/s, 97° | - | - |
| 1777988837 | 13.89° C | 92% | 1011.4 hPa | 0 mm | 1.34 m/s, 94° | - | - |
| 1777987938 | 13.89° C | 92% | 1011.5 hPa | 0 mm | 0.45 m/s, 68° | - | - |
| 1777987037 | 13.89° C | 92% | 1011.5 hPa | 0 mm | 1.34 m/s, 109° | - | - |
| 1777986141 | 13.89° C | 92% | 1011.6 hPa | 0 mm | 0.89 m/s, 86° | - | - |
| 1777985243 | 13.89° C | 92% | 1011.6 hPa | 1.02 mm | 1.79 m/s, 87° | - | - |
| 1777984346 | 13.89° C | 93% | 1011.7 hPa | 1.02 mm | 1.34 m/s, 48° | - | - |
| 1777983451 | 13.89° C | 93% | 1011.6 hPa | 1.02 mm | 1.34 m/s, 63° | - | - |
| 1777982553 | 13.33° C | 93% | 1011.7 hPa | 1.02 mm | 0.89 m/s, 45° | - | - |
| 1777981655 | 13.33° C | 93% | 1011.8 hPa | 0 mm | 1.34 m/s, 89° | - | - |
| 1777980739 | 13.33° C | 93% | 1011.9 hPa | 0 mm | 0.45 m/s, 97° | - | - |
| 1777979841 | 13.33° C | 93% | 1011.9 hPa | 0 mm | 0 m/s | - | - |
| 1777978941 | 13.33° C | 92% | 1011.9 hPa | 0 mm | 0.45 m/s, 97° | - | - |
| 1777978047 | 13.33° C | 92% | 1011.8 hPa | 0 mm | 0 m/s | - | - |
| 1777977149 | 13.33° C | 91% | 1011.9 hPa | 0 mm | 0.45 m/s, 153° | - | - |
| 1777976251 | 13.33° C | 90% | 1011.8 hPa | 0 mm | 0 m/s | - | - |
| 1777975352 | 13.89° C | 91% | 1011.9 hPa | 0 mm | 0 m/s | - | - |
| 1777974456 | 13.89° C | 90% | 1011.8 hPa | 0 mm | 0.89 m/s, 153° | - | - |
| 1777973555 | 13.33° C | 90% | 1011.6 hPa | 0 mm | 0 m/s | - | - |
| 1777972637 | 13.33° C | 91% | 1011.8 hPa | 0 mm | 0.45 m/s, 80° | - | - |
| 1777971744 | 13.33° C | 91% | 1011.6 hPa | 0 mm | 0 m/s | - | - |
| 1777970845 | 13.33° C | 90% | 1011.5 hPa | 0 mm | 0 m/s | - | - |
* Rain latest hour (hover to see other rain measurements)
** Current wind speed in m/s (hover to see current wind gust speed)